Regional Weather Roundup
Issued by NWS Charleston, SC

Home | Current Version | Previous Version | Text Only | Print | Product List | Glossary On
Versions: 1 2 3 4 5 6 7 8 9 10 11 12 13 14 15 16 17 18 19 20 21 22 23 24 25 26 27 28 29 30 31 32 33 34 35 36 37 38 39 40 41 42 43 44 45 46 47 48 49 50
000
ASUS42 KCHS 181225
RWRCHS

REGIONAL WEATHER ROUNDUP
NATIONAL WEATHER SERVICE CHARLESTON SC
800 AM EDT THU SEP 18 2014

NOTE: "FAIR" INDICATES FEW OR NO CLOUDS BELOW 12,000 FEET WITH NO
SIGNIFICANT WEATHER AND/OR OBSTRUCTIONS TO VISIBILITY.

NOT ALL STATIONS ARE QUALITY CONTROLLED BY THE NATIONAL
WEATHER SERVICE. USE DATA WITH CAUTION...ESPECIALLY
DEWPOINT OBSERVATIONS.

SCZ027-030-031-034>040-042>050-181300-
...SOUTH CAROLINA...

CITY           SKY/WX    TMP DP  RH WIND       PRES   REMARKS
N CHARLESTON   MOSUNNY   73  69  87 N3        29.93R
6HR MIN TEMP:  70; 6HR MAX TEMP:  73; 6HR PCP: TRACE;

WATERFRONT PRK   N/A     75 N/A N/A N6          N/A
FORT JOHNSON   NOT AVBL
MOUNT PLEASANT FAIR      72  70  94 N3        29.94R
JOHNS ISLAND   SUNNY     75  75 100 CALM      29.93R
PINOPOLIS        N/A     73  70  88 NE7       29.86R
MONCKS CORNER    N/A     70  70 100 CALM      29.94R
SUMMERVILLE    FAIR      66  66 100 CALM      29.95R
BEAUFORT MCAS  MOSUNNY   73  70  90 W3        29.92R
6HR MIN TEMP:  70; 6HR MAX TEMP:  73;

BEAUFORT ARPT  FAIR      72  72 100 N5        29.93R
HILTON HEAD IS MOSUNNY   72  72 100 CALM      29.93
GEORGETOWN     NOT AVBL
WALTERBORO     PTSUNNY   70 N/A N/A CALM      29.96R
ORANGEBURG     MOCLDY    68  66  93 CALM      29.95R
6HR MIN TEMP:  66; 6HR MAX TEMP:  69;

BARNWELL       PTSUNNY   68  66  94 N3        29.95R FOG
AIKEN          FAIR      66  66 100 N5        29.99R FOG
MANNING        CLOUDY    68 N/A N/A CALM      29.95R VSB 1/4
KINGSTREE      NOT AVBL
COLUMBIA       FOG       67  65  93 N5        29.95S VSB 1/4
6HR MIN TEMP:  64; 6HR MAX TEMP:  70;

SUMTER         FOG       68  64  88 NE5       29.95R VSB 3/4
6HR MIN TEMP:  66; 6HR MAX TEMP:  69;

FLORENCE       CLOUDY    69  66  90 NE8       29.95R
6HR MIN TEMP:  69; 6HR MAX TEMP:  71;

MYRTLE BEACH   SUNNY     70  64  83 NE6       29.93R
N MYRTLE BEACH SUNNY     68  66  93 NE7       29.93R
6HR MIN TEMP:  68; 6HR MAX TEMP:  72;


$$

GAZ063-065-086>088-099>101-113>116-118-119-134-136>141-150-181300-
...GEORGIA...

CITY           SKY/WX    TMP DP  RH WIND       PRES   REMARKS
SAVANNAH ARPT  FOG       72  68  88 N3        29.93R VSB 1/4
6HR MIN TEMP:  69; 6HR MAX TEMP:  73;

HUNTER AAF     CLEAR     71  71 100 N3        29.90R
6HR MIN TEMP:  68; 6HR MAX TEMP:  72;

FORT STEWART   FOG       69  68  97 N3        29.91R VSB 1/4
6HR MIN TEMP:  69; 6HR MAX TEMP:  72;

STATESBORO     NOT AVBL
SYLVANIA       CLOUDY    72  72  99 CALM      29.94S
CLAXTON        FOG      N/A N/A N/A CALM      29.94R VSB 1/4
THOMSON        CLOUDY    70  70 100 NE3       30.00S
AUGUSTA-BUSH   CLOUDY    68  67  96 N7        29.94R FOG
6HR MIN TEMP:  65; 6HR MAX TEMP:  68;

AUGUSTA-DANIEL CLOUDY    69  67  93 N7        29.96R FOG
SWAINSBORO     CLOUDY    72  72 100 CALM      29.95R
VIDALIA        FOG       70  70 100 NE5       29.94R VSB<1/4
ALMA           CLEAR     69  67  93 CALM      29.92R FOG
6HR MIN TEMP:  65; 6HR MAX TEMP:  70;

WAYCROSS       CLEAR     73  72  98 CALM      29.92R
JESUP          FAIR      70  70 100 CALM      29.92R
BRUNSWICK      CLEAR     72  70  94 CALM      29.93R
SAINT SIMONS   CLEAR     73  72  96 CALM      29.91R
6HR MIN TEMP:  72; 6HR MAX TEMP:  75;


$$

SCZ027-028-034-036>038-045-046-048>050-GAZ119-141-181300-
...LAKE AND SUPPLEMENTAL COASTAL OBSERVATIONS...

STATION/POSITION TIME  TEMP    WIND        PRES    WAVE   SWELL
                       AIR SEA DIR/SP/G            HT/PER HT/PER/DIR
                 (UTC) (F)     (DEG/KT/KT) (MB)    (FT/S) (FT/S/D)
UPR LAKE MARION  NOT AVBL
WINYAH BAY       1200   70     340/  4     1013.0S
LAKE MURRAY      1200   66      20/  1/  3 1013.9S
ACE BASIN NERRS  1200   69        CALM     1013.0S
FORT PULASKI     1200   78      10/  3/  5 1013.3R
SAPELO ISLAND    1200   73        CALM     1013.0R

$$

ANZ835-935-AMZ111-154-330-350-352-354-374-450-454-472-181300-
...C-MAN AND BUOY OBSERVATIONS...

STATION/POSITION TIME  TEMP    WIND        PRES    WAVE   SWELL
                       AIR SEA DIR/SP/G            HT/PER HT/PER/DIR
                 (UTC) (F)     (DEG/KT/KT) (MB)    (FT/S) (FT/S/D)
FOLLY BEACH CMAN 1200   75     340/  2/  3 1013.6R
BUOY 41004       1200   79 83   10/  6/  6 1012.6R   4/11   3/11
BUOY 41008       1200   79 83  160/  4/  8 1012.5R   3/13   3/ 90/13
5E ST. MARYS GA  1200      83                N/A     3/13   2/120/13
FRYING PAN BUOY  NOT AVBL
BUOY 41025       1200   76      10/ 16/ 19 1013.0R   6/ 8   3/ 50/ 8
CAPE LOOKOUT NC  1200   75      40/ 13/ 15 1013.4R
BUOY 41002       1102   78 82  340/ 10/ 12 1012.4    4/10   3/100/10
BUOY 41010       1200   81 85   20/  6/  8 1013.0R   5/13   5/ 60/13
BUOY 41012       NOT AVBL
ST AUGUSTINE FL  1200   75     260/  6/  7 1013.4R
CAPERS NEARSHORE 1100   76      60/  4/  6   N/A
FRIPP NEARSHORE  NOT AVBL


$$



USA.gov is the U.S. government's official web portal to all federal, state and local government web resources and services.